COSMOS 1275 DEB, 12693

Orbit data source: Space-Track

COSMOS 1275 DEB, 12693 is space debris in LEO originally from a launch on Thu, 04 Jun 1981 UTC launched from the Plesetsk Missile And Space Complex (PKMTR). Debris objects in space refer to the collection of defunct objects orbiting the Earth. Examples of debris include non-operational satellites, rocket bodies, and fragments generated from explosions, collisions, or faulty payload assembly.

Loading next visibility...
Identifier
12693, 1981-053AM
Orbit
LEO
Country
Flag of CISCIS
Related business
Manufacturer
Unknown
Mission
Spacecraft
Bus & Motor
Unknown
Mass
Unknown
Launch date (UTC)
1981-06-04 (44 years ago)
Launch vehicle
Unknown
Launch site
Plesetsk Missile And Space Complex (PKMTR)
Object type
Payload
Rocket body
Debris
Shape & HBR
Unknown shape, 0.2 m
Radar Cross Section
Medium (>0.1 m² and <1 m²)

Expand to show TLE details & history
Last TLE update: 19 hours ago

TLE from 19 hours ago
0 COSMOS 1275 DEB
1 12693U 81053AM  25305.50472711  .00002121  00000-0  96740-3 0  9995
2 12693  83.1408 113.5135 0046484  20.4150  33.5330 14.20625899955736
Epoch: 2025-11-01T12:06Z
TLE epoch observation values (Epoch: 2025-11-01T12:06:48.422Z)
Latitude
53.77811°
Longitude
-99.82057°
Altitude
804.223 km
Speed
7.471 km/s
True Right ascension
08h 11m 39s
True Declination
53° 36' 54"
Sunlit
Object was in daylight at epoch
Visualization orbit readout
Latitude
Unknown
Longitude
Unknown
Altitude
Unknown
Speed
Unknown
Apparent Right ascension
Unknown
Apparent Declination
Unknown
Sunlit
N/A
Visualization observer readout
Local Sidereal Time
02:38:38
Azimuth
Unknown
Elevation
Unknown
Doppler factor
Unknown
Orbital elements
Apogee altitude
853.776 km
Perigee altitude
786.854 km
Semi-major axis
7,198.452 km
Eccentricity
0.00465
Inclination
83.1408°
RAAN
113.5135°
Arg. of periapsis
20.415°
True anomaly
33.82869°
Mean anomaly
33.533°
Eccentric anomaly
33.6807°
Mean motion
3.55373 °/min
Orbital period
101.3 mins
BSTAR
0.0009674
Loading maneuver chart data...
Computing Atmospheric mass density...
Loading historical data...
Loading historical data...
Loading historical data...
Loading historical data...
Loading historical data...
Loading historical data...
Loading historical data...

Documentation

Showing up to 5 results
|